START_TIME,STEP,MOV.,H8,t_acc.,H43,t_acc.,M25,t_acc.,H9,t_acc.
1979-07-19 06:00:29.370 ,0,1,0.,12.0,0.,12.0,0.,12.0,0.,12.0
1979-07-19 06:00:41.370 ,0,1,0.,12.0,0.,12.0,0.,12.0,0.,12.0
1979-07-19 06:00:53.370 ,4,1,0.,12.0,0.,12.0,0.,12.0,0.,12.0
1979-07-19 06:01:05.370 ,4,1,0.,12.0,0.,12.0,0.,12.0,0.,12.0
1979-07-19 06:01:17.370 ,7,1,0.,12.0,0.,12.0,0.,12.0,0.,12.0
1979-07-19 06:01:29.370 ,7,1,0.,12.0,0.,12.0,0.,12.0,0.,12.0
1979-07-19 06:01:41.370 ,3,1,0.,12.0,0.,12.0,0.,12.0,0.,12.0
1979-07-19 06:01:53.370 ,3,1,0.,12.0,0.,12.0,0.,12.0,0.,12.0
1979-07-19 06:02:05.370 ,0,1,0.,12.0,0.,12.0,0.,12.0,0.,12.0
1979-07-19 06:02:17.370 ,0,1,0.,12.0,0.,12.0,0.,12.0,0.,12.0
1979-07-19 06:03:17.370 ,0,0,0.,12.0,0.,12.0,0.,12.0,0.,12.0
1979-07-19 06:03:29.370 ,0,0,0.,12.0,0.,12.0,0.,12.0,0.,12.0
1979-07-19 06:03:41.370 ,0,1,0.,12.0,0.,12.0,0.,12.0,0.,12.0
1979-07-19 06:03:53.370 ,0,1,0.,12.0,0.,12.0,0.,12.0,0.,12.0
1979-07-19 06:04:05.370 ,4,1,0.,12.0,0.,12.0,0.,12.0,0.,12.0
1979-07-19 06:04:17.370 ,4,1,0.,12.0,0.,12.0,0.,12.0,0.,12.0
1979-07-19 06:04:29.370 ,7,1,0.,12.0,0.,12.0,0.,12.0,0.,12.0
1979-07-19 06:04:41.370 ,7,1,0.,12.0,0.,12.0,0.,12.0,0.,12.0
1979-07-19 06:04:53.370 ,3,1,0.,12.0,0.,12.0,0.,12.0,0.,12.0
1979-07-19 06:05:05.370 ,3,1,0.,12.0,0.,12.0,0.,12.0,0.,12.0
1979-07-19 06:05:17.370 ,0,1,0.,12.0,0.,12.0,0.,12.0,0.,12.0
1979-07-19 06:05:29.370 ,0,1,0.,12.0,0.,12.0,0.,12.0,0.,12.0
1979-07-19 06:05:41.370 ,0,0,0.,12.0,0.,12.0,0.,12.0,0.,12.0
1979-07-19 06:05:53.370 ,0,0,0.,12.0,0.,12.0,0.,12.0,0.,12.0
1979-07-19 06:06:05.370 ,0,0,0.,12.0,0.,12.0,0.,12.0,0.,12.0
1979-07-19 06:06:17.370 ,0,0,0.,12.0,0.,12.0,0.,12.0,0.,12.0
1979-07-19 06:06:29.370 ,5,0,0.,12.0,0.,12.0,0.,12.0,0.,12.0
1979-07-19 06:06:41.370 ,5,0,0.,12.0,0.,12.0,0.,12.0,0.,12.0
1979-07-19 06:06:53.370 ,5,0,0.,12.0,0.,12.0,0.,12.0,0.,12.0
1979-07-19 06:07:05.370 ,5,0,0.,12.0,1.,12.0,0.,12.0,0.,12.0
1979-07-19 06:07:17.370 ,4,0,0.,12.0,0.,12.0,0.,12.0,0.,12.0
1979-07-19 06:07:29.370 ,4,0,0.,12.0,0.,12.0,0.,12.0,0.,12.0
1979-07-19 06:07:41.370 ,4,0,0.,12.0,0.,12.0,0.,12.0,0.,12.0
1979-07-19 06:07:53.370 ,4,0,0.,12.0,0.,12.0,0.,12.0,0.,12.0
1979-07-19 06:08:05.370 ,3,0,0.,12.0,0.,12.0,0.,12.0,0.,12.0
1979-07-19 06:08:17.370 ,3,0,0.,12.0,0.,12.0,0.,12.0,0.,12.0
1979-07-19 06:08:29.370 ,3,0,0.,12.0,0.,12.0,0.,12.0,0.,12.0
1979-07-19 06:08:41.370 ,3,0,0.,12.0,0.,12.0,0.,12.0,0.,12.0
1979-07-19 06:08:53.370 ,2,0,0.,12.0,0.,12.0,0.,12.0,0.,12.0
1979-07-19 06:09:05.370 ,2,0,0.,12.0,0.,12.0,0.,12.0,0.,12.0
1979-07-19 06:09:17.370 ,2,0,0.,12.0,0.,12.0,0.,12.0,0.,12.0
1979-07-19 06:09:29.370 ,2,0,0.,12.0,0.,12.0,0.,12.0,0.,12.0
1979-07-19 06:09:41.370 ,1,0,0.,12.0,0.,12.0,0.,12.0,0.,12.0
1979-07-19 06:09:53.370 ,1,0,0.,12.0,0.,12.0,0.,12.0,0.,12.0
1979-07-19 06:10:05.370 ,1,0,0.,12.0,0.,12.0,0.,12.0,0.,12.0
1979-07-19 06:10:17.370 ,1,0,0.,12.0,0.,12.0,0.,12.0,0.,12.0
1979-07-19 06:10:29.370 ,0,0,0.,12.0,0.,12.0,0.,12.0,0.,12.0
1979-07-19 06:10:41.370 ,0,0,0.,12.0,0.,12.0,0.,12.0,0.,12.0
1979-07-19 06:10:53.370 ,0,0,0.,12.0,0.,12.0,0.,12.0,0.,12.0
1979-07-19 06:11:05.370 ,0,0,0.,12.0,0.,12.0,0.,12.0,0.,12.0
1979-07-19 06:11:17.370 ,0,0,0.,12.0,0.,12.0,0.,12.0,0.,12.0
1979-07-19 06:11:29.370 ,0,0,0.,12.0,0.,12.0,0.,12.0,0.,12.0
1979-07-19 06:11:41.370 ,0,0,0.,12.0,0.,12.0,0.,12.0,0.,12.0
1979-07-19 06:11:53.370 ,0,0,0.,12.0,0.,12.0,0.,12.0,0.,12.0
1979-07-19 06:12:05.370 ,1,0,0.,12.0,0.,12.0,0.,12.0,0.,12.0
1979-07-19 06:12:17.370 ,1,0,0.,12.0,0.,12.0,0.,12.0,0.,12.0
1979-07-19 06:12:29.370 ,1,0,0.,12.0,0.,12.0,0.,12.0,0.,12.0
1979-07-19 06:12:41.370 ,1,0,0.,12.0,0.,12.0,0.,12.0,0.,12.0
1979-07-19 06:12:53.370 ,2,0,0.,12.0,0.,12.0,0.,12.0,0.,12.0
1979-07-19 06:13:05.370 ,2,0,0.,12.0,0.,12.0,0.,12.0,0.,12.0
1979-07-19 06:13:17.370 ,2,0,0.,12.0,0.,12.0,0.,12.0,0.,12.0
1979-07-19 06:13:29.370 ,2,0,0.,12.0,0.,12.0,0.,12.0,0.,12.0
1979-07-19 06:19:17.370 ,0,0,0.,12.0,0.,12.0,0.,12.0,0.,12.0
1979-07-19 06:19:29.370 ,0,0,0.,12.0,0.,12.0,0.,12.0,0.,12.0
1979-07-19 06:19:41.370 ,0,0,0.,12.0,0.,12.0,0.,12.0,0.,12.0
1979-07-19 06:19:53.370 ,0,0,0.,12.0,0.,12.0,0.,12.0,0.,12.0
1979-07-19 06:20:05.370 ,4,0,0.,12.0,0.,12.0,0.,12.0,0.,12.0
1979-07-19 06:20:17.370 ,4,0,1.,12.0,0.,12.0,0.,12.0,0.,12.0
1979-07-19 06:20:29.370 ,4,0,0.,12.0,0.,12.0,0.,12.0,0.,12.0
1979-07-19 06:20:41.370 ,4,0,0.,12.0,0.,12.0,0.,12.0,0.,12.0
1979-07-19 06:20:53.370 ,3,0,0.,12.0,0.,12.0,0.,12.0,0.,12.0
1979-07-19 06:21:05.370 ,3,0,0.,12.0,0.,12.0,0.,12.0,0.,12.0
1979-07-19 06:21:17.370 ,3,0,0.,12.0,0.,12.0,0.,12.0,0.,12.0
1979-07-19 06:21:29.370 ,3,0,0.,12.0,0.,12.0,0.,12.0,0.,12.0
1979-07-19 06:21:41.370 ,2,0,0.,12.0,0.,12.0,0.,12.0,0.,12.0
1979-07-19 06:21:53.370 ,2,0,0.,12.0,0.,12.0,0.,12.0,0.,12.0
1979-07-19 06:22:05.370 ,2,0,0.,12.0,0.,12.0,0.,12.0,0.,12.0
1979-07-19 06:22:17.370 ,2,0,0.,12.0,0.,12.0,0.,12.0,0.,12.0
1979-07-19 06:22:29.370 ,1,0,0.,12.0,0.,12.0,0.,12.0,0.,12.0
1979-07-19 06:22:41.370 ,1,0,0.,12.0,0.,12.0,0.,12.0,0.,12.0
1979-07-19 06:22:53.370 ,1,0,0.,12.0,0.,12.0,0.,12.0,0.,12.0
1979-07-19 06:23:05.370 ,1,0,0.,12.0,0.,12.0,0.,12.0,0.,12.0
1979-07-19 06:23:17.370 ,0,0,0.,12.0,0.,12.0,0.,12.0,0.,12.0
1979-07-19 06:23:29.370 ,0,0,0.,12.0,0.,12.0,0.,12.0,0.,12.0
1979-07-19 06:23:41.370 ,0,0,0.,12.0,0.,12.0,0.,12.0,0.,12.0
1979-07-19 06:23:53.370 ,0,0,0.,12.0,0.,12.0,0.,12.0,0.,12.0
1979-07-19 06:24:05.370 ,0,0,0.,12.0,0.,12.0,0.,12.0,0.,12.0
1979-07-19 06:24:17.370 ,0,0,0.,12.0,0.,12.0,0.,12.0,0.,12.0
1979-07-19 06:24:29.370 ,0,0,0.,12.0,0.,12.0,0.,12.0,0.,12.0
1979-07-19 06:24:41.370 ,0,0,0.,12.0,0.,12.0,0.,12.0,0.,12.0
1979-07-19 06:24:53.370 ,1,0,0.,12.0,0.,12.0,0.,12.0,0.,12.0
1979-07-19 06:25:05.370 ,1,0,0.,12.0,0.,12.0,0.,12.0,0.,12.0
1979-07-19 06:25:17.370 ,1,0,0.,12.0,0.,12.0,0.,12.0,0.,12.0
1979-07-19 06:25:29.370 ,1,0,0.,12.0,0.,12.0,0.,12.0,0.,12.0
1979-07-19 06:25:41.370 ,2,0,0.,12.0,0.,12.0,0.,12.0,0.,12.0
1979-07-19 06:25:53.370 ,2,0,0.,12.0,0.,12.0,0.,12.0,0.,12.0
1979-07-19 06:26:05.370 ,2,0,0.,12.0,0.,12.0,0.,12.0,0.,12.0
1979-07-19 06:26:17.370 ,2,0,0.,12.0,0.,12.0,0.,12.0,0.,12.0
1979-07-19 06:26:29.370 ,3,0,0.,12.0,0.,12.0,0.,12.0,0.,12.0
1979-07-19 06:26:41.370 ,3,0,0.,12.0,0.,12.0,0.,12.0,0.,12.0
1979-07-19 06:26:53.370 ,3,0,0.,12.0,0.,12.0,0.,12.0,0.,12.0
1979-07-19 06:27:05.370 ,3,0,0.,12.0,0.,12.0,0.,12.0,0.,12.0
1979-07-19 06:27:17.370 ,4,0,0.,12.0,0.,12.0,0.,12.0,0.,12.0
1979-07-19 06:27:29.370 ,4,0,0.,12.0,0.,12.0,0.,12.0,0.,12.0
1979-07-19 06:27:41.370 ,4,0,0.,12.0,0.,12.0,0.,12.0,0.,12.0
1979-07-19 06:27:53.370 ,4,0,1.,12.0,0.,12.0,0.,12.0,0.,12.0
1979-07-19 06:28:05.370 ,5,0,0.,12.0,0.,12.0,0.,12.0,0.,12.0
1979-07-19 06:28:17.370 ,5,0,0.,12.0,0.,12.0,0.,12.0,0.,12.0
1979-07-19 06:28:29.370 ,5,0,0.,12.0,0.,12.0,0.,12.0,0.,12.0
1979-07-19 06:28:41.370 ,5,0,0.,12.0,0.,12.0,0.,12.0,0.,12.0
1979-07-19 06:28:53.370 ,6,0,0.,12.0,0.,12.0,0.,12.0,0.,12.0
1979-07-19 06:29:05.370 ,6,0,0.,12.0,0.,12.0,0.,12.0,0.,12.0
1979-07-19 06:29:17.370 ,6,0,0.,12.0,0.,12.0,0.,12.0,0.,12.0
1979-07-19 06:29:29.370 ,6,0,0.,12.0,0.,12.0,0.,12.0,0.,12.0
1979-07-19 06:29:41.370 ,7,0,0.,12.0,0.,12.0,0.,12.0,0.,12.0
1979-07-19 06:29:53.370 ,7,0,0.,12.0,0.,12.0,0.,12.0,0.,12.0
1979-07-19 06:30:05.370 ,7,0,0.,12.0,0.,12.0,0.,12.0,0.,12.0
1979-07-19 06:30:17.370 ,7,0,0.,12.0,0.,12.0,0.,12.0,0.,12.0
1979-07-19 06:30:29.370 ,7,0,0.,12.0,0.,12.0,0.,12.0,0.,12.0
1979-07-19 06:30:41.370 ,7,0,0.,12.0,0.,12.0,0.,12.0,0.,12.0
1979-07-19 06:30:53.370 ,7,0,0.,12.0,0.,12.0,0.,12.0,0.,12.0
1979-07-19 06:31:05.370 ,7,0,0.,12.0,0.,12.0,0.,12.0,0.,12.0
1979-07-19 06:31:17.370 ,6,0,0.,12.0,0.,12.0,0.,12.0,0.,12.0
1979-07-19 06:31:29.370 ,6,0,0.,12.0,0.,12.0,0.,12.0,0.,12.0
1979-07-19 06:31:41.370 ,6,0,0.,12.0,0.,12.0,0.,12.0,0.,12.0
1979-07-19 06:31:53.370 ,6,0,0.,12.0,0.,12.0,0.,12.0,0.,12.0
1979-07-19 06:32:05.370 ,5,0,0.,12.0,0.,12.0,0.,12.0,0.,12.0
1979-07-19 06:32:17.370 ,5,0,0.,12.0,0.,12.0,0.,12.0,0.,12.0
1979-07-19 06:32:29.370 ,0,0,,0,,0,,0,,0
1979-07-19 06:32:41.370 ,0,0,,0,,0,,0,,0
1979-07-19 06:32:41.970 ,0,0,,0,,0,,0,,0
1979-07-19 06:32:53.970 ,0,0,0.,12.0,0.,12.0,0.,12.0,0.,12.0
1979-07-19 06:33:41.370 ,0,0,0.,12.0,0.,12.0,0.,12.0,0.,12.0
1979-07-19 06:33:53.370 ,0,0,0.,12.0,0.,12.0,0.,12.0,0.,12.0
1979-07-19 06:34:05.370 ,0,0,1.,12.0,0.,12.0,0.,12.0,0.,12.0
1979-07-19 06:34:17.370 ,0,0,0.,12.0,0.,12.0,0.,12.0,0.,12.0
1979-07-19 06:34:29.370 ,2,0,0.,12.0,0.,12.0,0.,12.0,0.,12.0
1979-07-19 06:34:41.370 ,2,0,0.,12.0,0.,12.0,0.,12.0,0.,12.0
1979-07-19 06:34:53.370 ,2,0,0.,12.0,0.,12.0,0.,12.0,0.,12.0
1979-07-19 06:35:05.370 ,2,0,0.,12.0,0.,12.0,0.,12.0,0.,12.0
1979-07-19 06:35:17.370 ,1,0,1.,12.0,0.,12.0,0.,12.0,0.,12.0
1979-07-19 06:35:29.370 ,1,0,0.,12.0,0.,12.0,0.,12.0,0.,12.0
1979-07-19 06:35:41.370 ,1,0,0.,12.0,0.,12.0,0.,12.0,0.,12.0
1979-07-19 06:35:53.370 ,1,0,0.,12.0,0.,12.0,0.,12.0,0.,12.0
1979-07-19 06:36:05.370 ,0,0,0.,12.0,0.,12.0,0.,12.0,0.,12.0
1979-07-19 06:36:17.370 ,0,0,0.,12.0,0.,12.0,0.,12.0,0.,12.0
1979-07-19 06:36:29.370 ,0,0,0.,12.0,0.,12.0,0.,12.0,0.,12.0
1979-07-19 06:36:41.370 ,0,0,0.,12.0,0.,12.0,0.,12.0,0.,12.0
1979-07-19 06:36:53.370 ,0,0,0.,12.0,0.,12.0,0.,12.0,0.,12.0
1979-07-19 06:37:05.370 ,0,0,0.,12.0,0.,12.0,0.,12.0,0.,12.0
1979-07-19 06:37:17.370 ,0,0,0.,12.0,0.,12.0,0.,12.0,0.,12.0
1979-07-19 06:37:29.370 ,0,0,0.,12.0,0.,12.0,0.,12.0,0.,12.0
1979-07-19 06:37:41.370 ,1,0,0.,12.0,0.,12.0,0.,12.0,0.,12.0
1979-07-19 06:37:53.370 ,1,0,0.,12.0,0.,12.0,0.,12.0,0.,12.0
1979-07-19 06:38:05.370 ,1,0,0.,12.0,0.,12.0,0.,12.0,0.,12.0
1979-07-19 06:38:17.370 ,1,0,0.,12.0,0.,12.0,0.,12.0,0.,12.0
1979-07-19 06:38:29.370 ,2,0,0.,12.0,0.,12.0,0.,12.0,0.,12.0
1979-07-19 06:38:41.370 ,2,0,0.,12.0,0.,12.0,0.,12.0,0.,12.0
1979-07-19 06:38:53.370 ,2,0,0.,12.0,0.,12.0,0.,12.0,0.,12.0
1979-07-19 06:39:05.370 ,2,0,1.,12.0,0.,12.0,0.,12.0,0.,12.0
1979-07-19 06:39:17.370 ,3,0,0.,12.0,0.,12.0,0.,12.0,0.,12.0
1979-07-19 06:39:29.370 ,3,0,0.,12.0,0.,12.0,0.,12.0,0.,12.0
1979-07-19 06:39:41.370 ,3,0,0.,12.0,0.,12.0,0.,12.0,0.,12.0
1979-07-19 06:39:53.370 ,3,0,0.,12.0,0.,12.0,0.,12.0,0.,12.0
1979-07-19 06:40:05.370 ,4,0,0.,12.0,0.,12.0,0.,12.0,0.,12.0
1979-07-19 06:40:17.370 ,4,0,0.,12.0,0.,12.0,0.,12.0,0.,12.0
1979-07-19 06:40:29.370 ,4,0,0.,12.0,0.,12.0,0.,12.0,0.,12.0
1979-07-19 06:40:41.370 ,4,0,0.,12.0,0.,12.0,0.,12.0,0.,12.0
1979-07-19 06:40:53.370 ,5,0,0.,12.0,0.,12.0,0.,12.0,0.,12.0
1979-07-19 06:41:05.370 ,5,0,0.,12.0,0.,12.0,0.,12.0,0.,12.0
1979-07-19 06:41:17.370 ,5,0,0.,12.0,0.,12.0,0.,12.0,0.,12.0
1979-07-19 06:41:29.370 ,5,0,0.,12.0,0.,12.0,0.,12.0,0.,12.0
1979-07-19 06:41:41.370 ,6,0,0.,12.0,0.,12.0,0.,12.0,0.,12.0
1979-07-19 06:41:53.370 ,6,0,0.,12.0,0.,12.0,0.,12.0,0.,12.0
1979-07-19 06:42:05.370 ,6,0,0.,12.0,0.,12.0,0.,12.0,0.,12.0
1979-07-19 06:42:17.370 ,6,0,1.,12.0,0.,12.0,0.,12.0,0.,12.0
1979-07-19 06:42:29.370 ,7,0,0.,12.0,0.,12.0,0.,12.0,0.,12.0
1979-07-19 06:42:41.370 ,7,0,0.,12.0,0.,12.0,0.,12.0,0.,12.0
1979-07-19 06:42:53.370 ,7,0,0.,12.0,0.,12.0,0.,12.0,0.,12.0
1979-07-19 06:43:05.370 ,7,0,0.,12.0,0.,12.0,0.,12.0,0.,12.0
1979-07-19 06:43:17.370 ,3,1,0.,12.0,0.,12.0,0.,12.0,0.,12.0
1979-07-19 06:43:29.370 ,3,1,0.,12.0,0.,12.0,0.,12.0,0.,12.0
1979-07-19 06:43:41.370 ,0,1,0.,12.0,0.,12.0,0.,12.0,0.,12.0
1979-07-19 06:43:53.370 ,0,1,0.,12.0,0.,12.0,0.,12.0,0.,12.0
1979-07-19 06:44:53.370 ,0,0,0.,12.0,0.,12.0,0.,12.0,0.,12.0
1979-07-19 06:45:05.370 ,0,0,0.,12.0,0.,12.0,0.,12.0,0.,12.0
1979-07-19 06:45:17.370 ,0,1,0.,12.0,0.,12.0,0.,12.0,0.,12.0
1979-07-19 06:45:29.370 ,0,1,0.,12.0,0.,12.0,0.,12.0,0.,12.0
1979-07-19 06:45:41.360 ,4,1,0.,12.0,0.,12.0,0.,12.0,0.,12.0
1979-07-19 06:45:53.360 ,4,1,0.,12.0,0.,12.0,0.,12.0,0.,12.0
1979-07-19 06:46:05.360 ,0,0,0.,12.0,0.,12.0,0.,12.0,0.,12.0
1979-07-19 06:46:17.360 ,0,0,0.,12.0,0.,12.0,0.,12.0,0.,12.0
1979-07-19 06:46:29.360 ,0,0,0.,12.0,0.,12.0,0.,12.0,0.,12.0
1979-07-19 06:46:41.360 ,0,0,0.,12.0,0.,12.0,0.,12.0,0.,12.0
1979-07-19 06:46:53.360 ,0,1,0.,12.0,0.,12.0,0.,12.0,0.,12.0
1979-07-19 06:47:05.360 ,0,1,0.,12.0,0.,12.0,0.,12.0,0.,12.0
1979-07-19 06:47:17.360 ,4,1,0.,12.0,0.,12.0,0.,12.0,0.,12.0
1979-07-19 06:47:29.360 ,4,1,0.,12.0,0.,12.0,0.,12.0,0.,12.0
1979-07-19 06:47:41.360 ,7,1,0.,12.0,0.,12.0,0.,12.0,0.,12.0
1979-07-19 06:47:53.360 ,7,1,0.,12.0,0.,12.0,0.,12.0,0.,12.0
1979-07-19 06:48:05.360 ,3,1,,0,,0,,0,,0
1979-07-19 06:48:17.360 ,3,1,0.,12.0,0.,12.0,0.,12.0,0.,12.0
1979-07-19 06:48:29.360 ,0,1,0.,12.0,0.,12.0,0.,12.0,0.,12.0
1979-07-19 06:48:41.360 ,0,1,0.,12.0,0.,12.0,0.,12.0,0.,12.0
1979-07-19 06:48:53.360 ,4,1,0.,12.0,0.,12.0,0.,12.0,0.,12.0
1979-07-19 06:49:05.360 ,4,1,0.,12.0,0.,12.0,0.,12.0,0.,12.0
1979-07-19 06:49:17.360 ,7,1,0.,12.0,0.,12.0,0.,12.0,0.,12.0
1979-07-19 06:49:29.360 ,7,1,0.,12.0,0.,12.0,0.,12.0,0.,12.0
1979-07-19 06:49:41.360 ,3,1,0.,12.0,0.,12.0,0.,12.0,0.,12.0
1979-07-19 06:49:53.360 ,3,1,0.,12.0,0.,12.0,0.,12.0,0.,12.0
1979-07-19 06:50:05.360 ,0,1,1.,12.0,0.,12.0,0.,12.0,0.,12.0
1979-07-19 06:50:17.360 ,0,1,0.,12.0,0.,12.0,0.,12.0,0.,12.0
1979-07-19 06:50:29.360 ,0,0,0.,12.0,0.,12.0,0.,12.0,0.,12.0
1979-07-19 06:50:41.360 ,0,0,0.,12.0,0.,12.0,0.,12.0,0.,12.0
1979-07-19 06:50:53.360 ,7,1,0.,12.0,0.,12.0,0.,12.0,0.,12.0
1979-07-19 06:51:05.360 ,7,1,0.,12.0,0.,12.0,0.,12.0,0.,12.0
1979-07-19 06:51:17.360 ,3,1,0.,12.0,0.,12.0,0.,12.0,0.,12.0
1979-07-19 06:51:29.360 ,3,1,0.,12.0,0.,12.0,0.,12.0,0.,12.0
1979-07-19 06:51:41.360 ,0,1,0.,12.0,0.,12.0,0.,12.0,0.,12.0
1979-07-19 06:51:53.360 ,0,1,0.,12.0,0.,12.0,0.,12.0,0.,12.0
1979-07-19 06:52:05.360 ,4,1,0.,12.0,0.,12.0,0.,12.0,0.,12.0
1979-07-19 06:52:17.360 ,4,1,0.,12.0,0.,12.0,0.,12.0,0.,12.0
1979-07-19 06:52:29.360 ,7,1,0.,12.0,0.,12.0,0.,12.0,0.,12.0
1979-07-19 06:52:41.360 ,7,1,0.,12.0,0.,12.0,0.,12.0,0.,12.0
1979-07-19 06:52:53.360 ,3,1,0.,12.0,0.,12.0,0.,12.0,0.,12.0
1979-07-19 06:53:05.360 ,3,1,0.,12.0,0.,12.0,0.,12.0,0.,12.0
1979-07-19 06:53:17.360 ,0,0,0.,12.0,0.,12.0,0.,12.0,0.,12.0
1979-07-19 06:53:29.360 ,0,0,0.,12.0,0.,12.0,0.,12.0,0.,12.0
1979-07-19 06:53:41.970 ,0,0,0.,12.0,0.,12.0,0.,12.0,0.,12.0
1979-07-19 06:53:53.970 ,0,0,0.,12.0,0.,12.0,0.,12.0,0.,12.0
1979-07-19 06:54:05.360 ,0,0,0.,12.0,0.,12.0,0.,12.0,0.,12.0
1979-07-19 06:54:17.360 ,0,0,1.,12.0,0.,12.0,0.,12.0,0.,12.0
1979-07-19 06:54:29.360 ,5,0,,0,,0,,0,,0
1979-07-19 06:54:41.360 ,5,0,0.,12.0,0.,12.0,0.,12.0,0.,12.0
1979-07-19 06:54:53.360 ,5,0,0.,12.0,0.,12.0,0.,12.0,0.,12.0
1979-07-19 06:55:05.360 ,5,0,0.,12.0,0.,12.0,0.,12.0,0.,12.0
1979-07-19 06:55:17.360 ,4,0,0.,12.0,0.,12.0,0.,12.0,0.,12.0
1979-07-19 06:55:29.360 ,4,0,0.,12.0,0.,12.0,0.,12.0,0.,12.0
1979-07-19 06:55:41.360 ,4,0,0.,12.0,0.,12.0,0.,12.0,0.,12.0
1979-07-19 06:55:53.360 ,4,0,0.,12.0,0.,12.0,0.,12.0,0.,12.0
1979-07-19 06:56:05.360 ,3,0,0.,12.0,0.,12.0,0.,12.0,0.,12.0
1979-07-19 06:56:17.360 ,3,0,0.,12.0,0.,12.0,0.,12.0,0.,12.0
1979-07-19 06:56:29.360 ,3,0,0.,12.0,0.,12.0,0.,12.0,0.,12.0
1979-07-19 06:56:41.360 ,3,0,0.,12.0,0.,12.0,0.,12.0,0.,12.0
1979-07-19 06:56:53.360 ,2,0,0.,12.0,0.,12.0,0.,12.0,0.,12.0
1979-07-19 06:57:05.360 ,2,0,0.,12.0,0.,12.0,0.,12.0,0.,12.0
1979-07-19 06:57:17.360 ,2,0,0.,12.0,0.,12.0,0.,12.0,0.,12.0
1979-07-19 06:57:29.360 ,2,0,0.,12.0,0.,12.0,0.,12.0,0.,12.0
1979-07-19 06:57:41.360 ,1,0,0.,12.0,0.,12.0,0.,12.0,0.,12.0
1979-07-19 06:57:53.360 ,1,0,0.,12.0,0.,12.0,0.,12.0,0.,12.0
1979-07-19 06:58:05.360 ,1,0,0.,12.0,0.,12.0,0.,12.0,0.,12.0
1979-07-19 06:58:17.360 ,1,0,0.,12.0,0.,12.0,0.,12.0,0.,12.0
1979-07-19 06:58:29.360 ,0,0,0.,12.0,0.,12.0,0.,12.0,0.,12.0
1979-07-19 06:58:41.360 ,0,0,0.,12.0,0.,12.0,0.,12.0,0.,12.0
1979-07-19 06:58:53.360 ,0,0,0.,12.0,0.,12.0,0.,12.0,0.,12.0
1979-07-19 06:59:05.360 ,0,0,0.,12.0,0.,12.0,0.,12.0,0.,12.0
1979-07-19 06:59:17.360 ,0,0,0.,12.0,0.,12.0,0.,12.0,0.,12.0
1979-07-19 06:59:29.360 ,0,0,0.,12.0,0.,12.0,0.,12.0,0.,12.0
1979-07-19 06:59:41.360 ,0,0,0.,12.0,0.,12.0,0.,12.0,0.,12.0
1979-07-19 06:59:53.360 ,0,0,0.,12.0,0.,12.0,0.,12.0,0.,12.0
1979-07-19 07:00:05.360 ,1,0,0.,12.0,0.,12.0,0.,12.0,0.,12.0
1979-07-19 07:00:17.360 ,1,0,0.,12.0,0.,12.0,0.,12.0,0.,12.0
1979-07-19 07:00:29.370 ,1,0,0.,12.0,0.,12.0,0.,12.0,0.,12.0
1979-07-19 07:00:41.370 ,1,0,0.,12.0,0.,12.0,0.,12.0,0.,12.0
1979-07-19 07:00:53.370 ,2,0,0.,12.0,0.,12.0,0.,12.0,0.,12.0
1979-07-19 07:01:05.370 ,2,0,0.,12.0,0.,12.0,0.,12.0,0.,12.0
1979-07-19 07:01:17.360 ,2,0,0.,12.0,0.,12.0,0.,12.0,0.,12.0
1979-07-19 07:01:29.370 ,2,0,0.,12.0,0.,12.0,0.,12.0,0.,12.0
1979-07-19 07:01:41.370 ,3,0,0.,12.0,0.,12.0,0.,12.0,0.,12.0
1979-07-19 07:01:53.370 ,3,0,0.,12.0,0.,12.0,0.,12.0,0.,12.0
1979-07-19 07:02:05.360 ,3,0,0.,12.0,0.,12.0,0.,12.0,0.,12.0
1979-07-19 07:02:17.370 ,3,0,0.,12.0,0.,12.0,0.,12.0,0.,12.0
1979-07-19 07:02:29.370 ,4,0,0.,12.0,0.,12.0,0.,12.0,0.,12.0
1979-07-19 07:02:41.370 ,4,0,0.,12.0,0.,12.0,0.,12.0,0.,12.0
1979-07-19 07:02:53.370 ,4,0,0.,12.0,0.,12.0,0.,12.0,0.,12.0
1979-07-19 07:03:05.370 ,4,0,0.,12.0,0.,12.0,0.,12.0,0.,12.0
1979-07-19 07:03:17.370 ,5,0,0.,12.0,0.,12.0,0.,12.0,0.,12.0
1979-07-19 07:03:29.370 ,5,0,0.,12.0,0.,12.0,0.,12.0,0.,12.0
1979-07-19 07:03:41.370 ,5,0,0.,12.0,0.,12.0,0.,12.0,0.,12.0
1979-07-19 07:03:53.370 ,5,0,0.,12.0,0.,12.0,0.,12.0,0.,12.0
1979-07-19 07:04:05.370 ,6,0,0.,12.0,0.,12.0,0.,12.0,0.,12.0
1979-07-19 07:04:17.370 ,6,0,0.,12.0,0.,12.0,0.,12.0,0.,12.0
1979-07-19 07:04:29.360 ,6,0,0.,12.0,0.,12.0,0.,12.0,0.,12.0
1979-07-19 07:04:41.360 ,6,0,0.,12.0,0.,12.0,0.,12.0,0.,12.0
1979-07-19 07:04:53.360 ,7,0,0.,12.0,0.,12.0,0.,12.0,0.,12.0
1979-07-19 07:05:05.360 ,7,0,0.,12.0,0.,12.0,0.,12.0,0.,12.0
1979-07-19 07:05:17.360 ,7,0,0.,12.0,0.,12.0,0.,12.0,0.,12.0
1979-07-19 07:05:29.360 ,7,0,0.,12.0,0.,12.0,0.,12.0,0.,12.0
1979-07-19 07:05:41.360 ,7,0,0.,12.0,0.,12.0,0.,12.0,0.,12.0
1979-07-19 07:05:53.360 ,7,0,0.,12.0,0.,12.0,0.,12.0,0.,12.0
1979-07-19 07:06:05.360 ,7,0,0.,12.0,0.,12.0,0.,12.0,0.,12.0
1979-07-19 07:06:17.360 ,7,0,0.,12.0,0.,12.0,0.,12.0,0.,12.0
1979-07-19 07:06:29.360 ,6,0,0.,12.0,0.,12.0,0.,12.0,0.,12.0
1979-07-19 07:06:41.360 ,6,0,0.,12.0,0.,12.0,0.,12.0,0.,12.0
1979-07-19 07:06:53.360 ,6,0,1.,12.0,0.,12.0,0.,12.0,0.,12.0
1979-07-19 07:07:05.360 ,6,0,0.,12.0,0.,12.0,0.,12.0,0.,12.0
1979-07-19 07:07:17.360 ,5,0,0.,12.0,0.,12.0,0.,12.0,0.,12.0
1979-07-19 07:07:29.360 ,5,0,0.,12.0,0.,12.0,0.,12.0,0.,12.0
1979-07-19 07:07:41.360 ,5,0,0.,12.0,0.,12.0,0.,12.0,0.,12.0
1979-07-19 07:07:53.360 ,5,0,0.,12.0,0.,12.0,0.,12.0,0.,12.0
1979-07-19 07:08:05.360 ,4,0,0.,12.0,0.,12.0,0.,12.0,0.,12.0
1979-07-19 07:08:17.360 ,4,0,0.,12.0,0.,12.0,0.,12.0,0.,12.0
1979-07-19 07:08:29.360 ,4,0,0.,12.0,0.,12.0,0.,12.0,0.,12.0
1979-07-19 07:08:41.360 ,4,0,0.,12.0,0.,12.0,0.,12.0,0.,12.0
1979-07-19 07:08:53.360 ,3,0,0.,12.0,0.,12.0,0.,12.0,0.,12.0
1979-07-19 07:09:05.360 ,3,0,0.,12.0,0.,12.0,0.,12.0,0.,12.0
1979-07-19 07:09:17.360 ,3,0,0.,12.0,0.,12.0,0.,12.0,0.,12.0
1979-07-19 07:09:29.360 ,3,0,0.,12.0,0.,12.0,0.,12.0,0.,12.0
1979-07-19 07:09:41.360 ,2,0,0.,12.0,0.,12.0,0.,12.0,0.,12.0
1979-07-19 07:09:53.360 ,2,0,0.,12.0,0.,12.0,0.,12.0,0.,12.0
1979-07-19 07:10:05.360 ,2,0,0.,12.0,0.,12.0,0.,12.0,0.,12.0
1979-07-19 07:10:17.360 ,2,0,0.,12.0,0.,12.0,0.,12.0,0.,12.0
1979-07-19 07:10:29.360 ,1,0,0.,12.0,0.,12.0,0.,12.0,0.,12.0
1979-07-19 07:10:41.360 ,1,0,0.,12.0,0.,12.0,0.,12.0,0.,12.0
1979-07-19 07:10:53.360 ,1,0,0.,12.0,0.,12.0,0.,12.0,0.,12.0
1979-07-19 07:11:05.360 ,1,0,0.,12.0,0.,12.0,0.,12.0,0.,12.0
1979-07-19 07:11:17.360 ,0,0,0.,12.0,0.,12.0,0.,12.0,0.,12.0
1979-07-19 07:11:29.360 ,0,0,0.,12.0,0.,12.0,0.,12.0,0.,12.0
1979-07-19 07:11:41.360 ,0,0,0.,12.0,0.,12.0,0.,12.0,0.,12.0
1979-07-19 07:11:53.360 ,0,0,0.,12.0,0.,12.0,0.,12.0,0.,12.0
1979-07-19 07:12:05.360 ,0,0,0.,12.0,0.,12.0,0.,12.0,0.,12.0
1979-07-19 07:12:17.360 ,0,0,0.,12.0,0.,12.0,0.,12.0,0.,12.0
1979-07-19 07:12:29.360 ,0,0,0.,12.0,0.,12.0,0.,12.0,0.,12.0
1979-07-19 07:12:41.360 ,0,0,0.,12.0,0.,12.0,0.,12.0,0.,12.0
1979-07-19 07:12:53.360 ,0,0,0.,12.0,0.,12.0,0.,12.0,0.,12.0
1979-07-19 07:13:05.360 ,0,0,0.,12.0,0.,12.0,0.,12.0,0.,12.0
1979-07-19 07:13:17.360 ,0,0,,0,,0,,0,,0
1979-07-19 07:13:29.360 ,0,0,0.,12.0,0.,12.0,0.,12.0,0.,12.0
1979-07-19 07:13:41.360 ,2,0,0.,12.0,0.,12.0,0.,12.0,0.,12.0
1979-07-19 07:13:53.360 ,2,0,0.,12.0,0.,12.0,0.,12.0,0.,12.0
1979-07-19 07:14:05.360 ,2,0,1.,12.0,0.,12.0,0.,12.0,0.,12.0
1979-07-19 07:14:17.360 ,2,0,0.,12.0,0.,12.0,0.,12.0,0.,12.0
1979-07-19 07:14:29.360 ,3,1,0.,12.0,0.,12.0,0.,12.0,0.,12.0
1979-07-19 07:14:41.360 ,3,1,,0,,0,,0,,0
1979-07-19 07:14:53.360 ,3,0,0.,12.0,0.,12.0,0.,12.0,0.,12.0
1979-07-19 07:15:05.360 ,3,0,0.,12.0,0.,12.0,0.,12.0,0.,12.0
1979-07-19 07:15:17.360 ,4,0,0.,12.0,0.,12.0,0.,12.0,0.,12.0
1979-07-19 07:15:29.360 ,4,0,0.,12.0,0.,12.0,0.,12.0,0.,12.0
1979-07-19 07:15:41.360 ,4,0,0.,12.0,0.,12.0,0.,12.0,0.,12.0
1979-07-19 07:15:53.360 ,4,0,0.,12.0,0.,12.0,0.,12.0,0.,12.0
1979-07-19 07:16:05.360 ,5,0,0.,12.0,0.,12.0,0.,12.0,0.,12.0
1979-07-19 07:16:17.360 ,5,0,0.,12.0,0.,12.0,0.,12.0,0.,12.0
1979-07-19 07:16:29.360 ,5,0,0.,12.0,0.,12.0,0.,12.0,0.,12.0
1979-07-19 07:16:41.360 ,5,0,0.,12.0,0.,12.0,0.,12.0,0.,12.0
1979-07-19 07:16:53.360 ,6,0,0.,12.0,0.,12.0,0.,12.0,0.,12.0
1979-07-19 07:17:05.360 ,6,0,0.,12.0,0.,12.0,0.,12.0,0.,12.0
1979-07-19 07:17:17.360 ,6,0,1.,12.0,0.,12.0,0.,12.0,0.,12.0
1979-07-19 07:17:29.360 ,6,0,0.,12.0,0.,12.0,0.,12.0,0.,12.0
1979-07-19 07:17:41.360 ,7,0,0.,12.0,0.,12.0,0.,12.0,0.,12.0
1979-07-19 07:17:53.360 ,7,0,0.,12.0,0.,12.0,0.,12.0,0.,12.0
1979-07-19 07:18:05.360 ,7,0,0.,12.0,0.,12.0,0.,12.0,0.,12.0
1979-07-19 07:18:17.360 ,7,0,0.,12.0,0.,12.0,0.,12.0,0.,12.0
1979-07-19 07:18:29.360 ,7,0,0.,12.0,0.,12.0,0.,12.0,0.,12.0
1979-07-19 07:18:41.360 ,7,0,0.,12.0,0.,12.0,0.,12.0,0.,12.0
1979-07-19 07:18:53.360 ,7,0,0.,12.0,0.,12.0,0.,12.0,0.,12.0
1979-07-19 07:19:05.360 ,7,0,0.,12.0,0.,12.0,0.,12.0,0.,12.0
1979-07-19 07:19:17.360 ,6,0,0.,12.0,0.,12.0,0.,12.0,0.,12.0
1979-07-19 07:19:29.360 ,6,0,0.,12.0,0.,12.0,0.,12.0,0.,12.0
1979-07-19 07:19:41.360 ,6,0,0.,12.0,0.,12.0,0.,12.0,0.,12.0
1979-07-19 07:19:53.360 ,6,0,0.,12.0,0.,12.0,0.,12.0,0.,12.0
1979-07-19 07:20:05.360 ,5,0,0.,12.0,0.,12.0,0.,12.0,0.,12.0
1979-07-19 07:20:17.360 ,5,0,0.,12.0,0.,12.0,0.,12.0,0.,12.0
1979-07-19 07:20:29.360 ,5,0,0.,12.0,0.,12.0,0.,12.0,0.,12.0
1979-07-19 07:20:41.360 ,5,0,0.,12.0,0.,12.0,0.,12.0,0.,12.0
1979-07-19 07:21:41.360 ,0,0,0.,12.0,0.,12.0,0.,12.0,0.,12.0
1979-07-19 07:21:53.360 ,0,0,0.,12.0,0.,12.0,0.,12.0,0.,12.0
1979-07-19 07:22:05.360 ,0,0,0.,12.0,0.,12.0,0.,12.0,0.,12.0
1979-07-19 07:22:17.360 ,0,0,0.,12.0,0.,12.0,0.,12.0,0.,12.0
1979-07-19 07:22:29.360 ,2,0,0.,12.0,0.,12.0,0.,12.0,0.,12.0
1979-07-19 07:22:41.360 ,2,0,0.,12.0,0.,12.0,0.,12.0,0.,12.0
1979-07-19 07:22:53.360 ,2,0,0.,12.0,0.,12.0,0.,12.0,0.,12.0
1979-07-19 07:23:05.360 ,2,0,0.,12.0,0.,12.0,0.,12.0,0.,12.0
1979-07-19 07:23:17.360 ,1,0,0.,12.0,0.,12.0,0.,12.0,0.,12.0
1979-07-19 07:23:29.360 ,1,0,0.,12.0,0.,12.0,0.,12.0,0.,12.0
1979-07-19 07:23:41.360 ,1,0,0.,12.0,0.,12.0,0.,12.0,0.,12.0
1979-07-19 07:23:53.360 ,1,0,0.,12.0,0.,12.0,0.,12.0,0.,12.0
1979-07-19 07:24:05.360 ,0,0,0.,12.0,0.,12.0,0.,12.0,0.,12.0
1979-07-19 07:24:17.360 ,0,0,0.,12.0,0.,12.0,0.,12.0,0.,12.0
1979-07-19 07:24:29.360 ,0,0,0.,12.0,0.,12.0,0.,12.0,0.,12.0
1979-07-19 07:24:41.360 ,0,0,0.,12.0,0.,12.0,0.,12.0,0.,12.0
1979-07-19 07:24:53.360 ,0,0,0.,12.0,0.,12.0,0.,12.0,0.,12.0
1979-07-19 07:25:05.360 ,0,0,0.,12.0,0.,12.0,0.,12.0,0.,12.0
1979-07-19 07:25:17.360 ,0,0,0.,12.0,0.,12.0,0.,12.0,0.,12.0
1979-07-19 07:25:29.360 ,0,0,0.,12.0,0.,12.0,0.,12.0,0.,12.0
1979-07-19 07:25:41.360 ,1,0,0.,12.0,0.,12.0,0.,12.0,0.,12.0
1979-07-19 07:25:53.360 ,1,0,0.,12.0,0.,12.0,0.,12.0,0.,12.0
1979-07-19 07:26:05.360 ,1,0,0.,12.0,0.,12.0,0.,12.0,0.,12.0
1979-07-19 07:26:17.360 ,1,0,0.,12.0,0.,12.0,0.,12.0,0.,12.0